Winfield, KS

10:11 AM CDT on July 24, 2017 (GMT -0500)
Strother

Weather History for KWLD - June, 2013

Change the Weather History Date:

Saturday, June 8, 2013

  Actual Average Record
Temperature  
Mean Temperature 71 °F -  
Max Temperature 81 °F 82 °F 99 °F (2011)
Min Temperature 61 °F 62 °F 46 °F (2003)
Cooling Degree Days 6    
Growing Degree Days 21 (Base 50)    
Moisture  
Dew Point 61 °F    
Average Humidity 74    
Maximum Humidity 96    
Minimum Humidity 50    
Precipitation  
Precipitation 0.78 in - - ()
Sea Level Pressure  
Sea Level Pressure 29.85 in    
Wind  
Wind Speed 9 mph (SSE)    
Max Wind Speed 22 mph    
Max Gust Speed 32 mph    
Visibility 9 miles    
Events Rain , Thunderstorm    
Averages and records for this station are not official NWS values.
T = Trace of Precipitation, MM = Missing Value Source: NWS Daily Summary

Daily Weather History Graph

Daily Weather History Graph

Search for Another Location

Airport or City:

Trip Planner

Search our weather history database for the weather conditions in past years. The results will help you decide how hot, cold, wet, or windy it might be!

Date:

Astronomy

Jun. 08, 2013 Rise Set
Actual Time 6:07 AM CDT 8:47 PM CDT
Civil Twilight 5:37 AM CDT 9:17 PM CDT
Nautical Twilight 4:58 AM CDT 9:56 PM CDT
Astronomical Twilight 4:16 AM CDT 10:38 PM CDT
Moon 6:15 AM CDT (6/8) 8:51 PM CDT (6/8)
Length of Visible Light 15h 40m
Length of Day
14h 39m
New Moon, 0% of the Moon is Illuminated
Jun 8
New Moon
Jun 16
First Quarter
Jun 23
Full
Jun 29
Last Quarter
Jul 8
New

Hourly Weather History & Observations

Time (CDT) Temp. Heat Index Dew Point Humidity Pressure Visibility Wind Dir Wind Speed Gust Speed Precip Events Conditions
12:54 AM 64.0 °F - 57.0 °F 78% 29.90 in 10.0 mi ESE 4.6 mph - N/A   Scattered Clouds
1:54 AM 62.1 °F - 57.0 °F 84% 29.90 in 10.0 mi Calm Calm - N/A   Scattered Clouds
2:54 AM 62.1 °F - 57.0 °F 84% 29.89 in 10.0 mi SE 5.8 mph - N/A   Clear
3:54 AM 62.1 °F - 57.0 °F 84% 29.89 in 10.0 mi SE 4.6 mph - N/A   Mostly Cloudy
4:54 AM 62.1 °F - 57.0 °F 84% 29.86 in 10.0 mi SE 8.1 mph - N/A   Clear
5:54 AM 61.0 °F - 57.0 °F 87% 29.87 in 10.0 mi SE 6.9 mph - N/A   Clear
6:54 AM 62.1 °F - 57.0 °F 84% 29.88 in 10.0 mi SSE 8.1 mph - N/A   Clear
7:54 AM 64.9 °F - 59.0 °F 81% 29.87 in 10.0 mi SSE 10.4 mph - N/A   Clear
8:54 AM 71.1 °F - 59.0 °F 66% 29.87 in 10.0 mi South 16.1 mph 20.7 mph N/A   Clear
9:54 AM 73.0 °F - 59.0 °F 61% 29.87 in 10.0 mi South 16.1 mph 21.9 mph N/A   Clear
10:54 AM 75.9 °F - 60.1 °F 58% 29.86 in 10.0 mi South 13.8 mph 25.3 mph N/A   Clear
11:54 AM 78.1 °F - 61.0 °F 56% 29.85 in 10.0 mi South 17.3 mph - N/A   Clear
12:54 PM 78.1 °F - 61.0 °F 56% 29.83 in 10.0 mi South 19.6 mph 31.1 mph N/A   Clear
1:54 PM 79.0 °F - 62.1 °F 56% 29.81 in 10.0 mi South 18.4 mph 28.8 mph N/A   Clear
2:54 PM 80.1 °F 81.1 °F 61.0 °F 52% 29.79 in 10.0 mi South 21.9 mph 32.2 mph N/A   Clear
3:54 PM 81.0 °F 81.7 °F 61.0 °F 50% 29.78 in 10.0 mi South 18.4 mph 27.6 mph N/A   Clear
4:54 PM 81.0 °F 81.7 °F 61.0 °F 50% 29.77 in 10.0 mi South 19.6 mph 26.5 mph N/A   Clear
5:54 PM 78.1 °F - 62.1 °F 58% 29.74 in 10.0 mi SSE 15.0 mph 23.0 mph N/A   Clear
6:54 PM 77.0 °F - 61.0 °F 58% 29.76 in 10.0 mi South 12.7 mph - N/A   Clear
7:54 PM 75.0 °F - 62.1 °F 64% 29.81 in 10.0 mi South 9.2 mph - N/A   Partly Cloudy
8:36 PM 73.4 °F - 62.6 °F 69% 29.83 in 10.0 mi SSE 10.4 mph - N/A Thunderstorm Overcast
8:54 PM 73.0 °F - 63.0 °F 71% 29.81 in 10.0 mi SSE 6.9 mph - N/A Thunderstorm Overcast
9:54 PM 68.0 °F - 66.0 °F 93% 29.89 in 2.5 mi WNW 17.3 mph 23.0 mph 0.22 in Rain Heavy Rain
10:01 PM 66.2 °F - 64.4 °F 94% 29.93 in 1.0 mi West 8.1 mph 19.6 mph 0.23 in Rain , Thunderstorm Heavy Rain
10:19 PM 64.4 °F - 62.6 °F 94% 29.92 in 2.5 mi SW 5.8 mph - 0.42 in Rain , Thunderstorm Heavy Thunderstorms and Rain
10:33 PM 64.4 °F - 62.6 °F 94% 29.89 in 4.0 mi SE 8.1 mph - 0.50 in Rain , Thunderstorm Rain
10:54 PM 64.0 °F - 63.0 °F 96% 29.81 in 7.0 mi ESE 17.3 mph 23.0 mph 0.54 in Rain , Thunderstorm Rain
11:20 PM 64.4 °F - 62.6 °F 94% 29.87 in 10.0 mi SE 8.1 mph - 0.02 in   Overcast
11:54 PM 64.0 °F - 63.0 °F 96% 29.86 in 10.0 mi ESE 4.6 mph - 0.02 in   Scattered Clouds